Find Starlink 31699

NORAD ID: 59551 Int'l Des: 2024-074 Owner: SPXS Country: US Constellation: starlink operational
LEOCIRCULAR

現在のビュー

3D地球を読み込み中...

About Starlink 31699

Starlink 31699 (NORAD 59551) is a starlink constellation satellite (v2 mini) launched Apr 18, 2024 by SPXS of US. It operates in LEO, CIRCULAR orbit with a mass of 730.00 kg.

次回通過

Passes for default location (London). Set your location on the main map for personalized predictions.

高度履歴

Loading altitude history...

軌道要素

1 59551U 24074T 26235.08423961 -.00004129 00000-0 -14051-3 0 9995
2 59551 43.0048 123.6890 0001454 257.8716 102.1973 15.27601691131461
Epoch: Aug 23, 2026 • Age: 27 hours

現在のステータス

高度 483.1 km
遠地点 / 近地点 N/A
速度 7.63 km/s
衛星直下点 22.71°N, 141.76°W
打ち上げ日 Apr 18, 2024
運用期間 2.3 years
タイプ internet

技術仕様

分類 Payload
質量 730.00 kg
乾燥質量 700.00 kg
総質量 730.00 kg
長さ 0.30 m
直径 4.10 m
スパン 29.00 m
形状 Box + pan
製造者 SPXS
バスタイプ Starlink V2M
フェーズステータス In Orbit
所有者/国 SPXS/US

Most Searched